Wind_Speed
7 7 3 3 4 2 3 2 2 3 2 2 2 2 3 3 2 5 3 2 3 4 5 4 4 4 6 8 12 14 13 16 15 14 16 9 7 6 6 6 6 7 5 4 10
6 5 3 3 4 2 2 3 2 1 1 3 5 5 4 3 4 5 5 4 5 7 6 7 6 3 7 8 11 14 13 12 10 8 14 14 15 14 8 11 2 4 9 9 10
5 4 3 2 2 3 2 1 1 1 2 4 6 6 6 3 5 4 3 3 3 4 5 7 6 6 7 4 9 13 14 11 9 8 18 21 21 17 13 15 12 3 4 1 7
5 5 4 3 3 2 3 2 3 2 3 4 5 5 4 3 3 3 2 2 5 6 6 8 8 8 8 8 12 15 13 17 15 16 21 24 27 24 21 17 24 14 13 12 11
5 5 5 4 3 4 3 3 3 3 4 4 4 2 2 2 2 1 2 3 5 7 8 9 9 10 11 11 14 19 21 21 23 23 24 26 30 33 32 27 23 31 21 21 17
7 6 7 6 5 4 5 4 4 3 3 3 2 2 3 2 1 2 4 6 8 9 11 11 11 12 12 12 18 21 23 23 24 27 29 31 34 33 36 33 31 29 37 28 27
7 7 7 6 5 5 4 4 3 2 2 2 3 2 2 3 1 2 3 5 7 9 11 12 12 12 13 14 15 17 23 22 19 18 23 34 42 41 37 35 34 34 38 38 31
7 7 6 6 5 5 5 6 6 6 5 4 3 1 2 4 4 5 7 9 12 12 12 11 10 9 10 11 13 15 15 16 16 10 9 15 26 27 25 26 26 25 32 40 42
8 7 7 7 7 8 8 7 8 8 6 4 2 2 2 3 3 3 6 6 8 12 13 12 9 7 5 12 12 12 18 21 24 13 19 15 26 19 13 18 23 27 28 26 32
9 9 10 10 10 10 10 9 8 7 6 4 5 4 3 2 5 4 8 11 11 9 8 9 7 5 2 11 14 16 17 20 23 23 27 25 31 26 21 21 22 23 21 22 27
11 12 12 11 12 11 11 11 9 9 6 5 6 7 5 4 7 10 10 13 13 14 15 11 3 9 9 10 12 15 16 20 19 19 22 24 33 34 28 24 24 23 23 27 27
13 14 13 13 13 14 13 10 10 10 9 9 9 6 4 7 9 10 11 17 19 21 17 10 11 7 7 9 12 11 16 21 24 27 25 26 30 35 27 22 24 26 23 24 33
15 15 15 15 15 15 15 13 12 10 11 13 9 5 8 6 6 12 16 18 18 20 18 12 9 6 7 11 12 13 16 21 25 26 23 29 32 34 27 23 17 13 12 14 21
15 15 16 16 14 14 13 13 10 8 7 9 4 6 7 6 8 10 18 18 17 20 15 6 13 12 12 13 17 20 18 20 22 24 23 26 18 37 24 19 18 12 12 16 19
16 15 15 15 16 15 12 11 9 8 4 7 4 4 3 3 7 7 15 12 16 20 20 13 10 11 12 15 15 12 17 19 22 27 23 19 10 13 25 12 12 13 12 15 15
16 15 15 13 13 13 13 11 9 4 3 7 5 2 1 3 8 9 10 12 10 15 17 12 11 7 11 11 14 14 17 19 17 11 1 6 20 7 17 17 13 4 9 19 19
15 15 15 15 14 13 12 12 6 3 11 7 5 1 1 1 8 11 14 16 16 15 23 7 6 5 13 22 17 13 23 9 5 3 4 11 12 4 8 13 23 26 16 21 27
16 16 16 15 15 13 12 11 3 8 7 9 5 3 3 4 6 8 10 13 16 18 11 13 4 18 17 16 19 11 12 3 5 2 10 18 4 4 20 26 23 19 25 25 29
16 17 17 16 14 13 12 7 5 11 9 9 7 6 8 3 3 6 7 8 11 14 14 11 4 17 8 26 9 13 11 13 10 13 6 4 8 4 12 12 26 27 30 33 32
17 17 17 15 13 13 13 8 8 12 10 10 7 8 8 2 4 5 5 5 8 10 16 10 9 9 25 24 10 11 7 3 5 3 4 6 10 6 6 19 33 32 33 35 35
19 18 17 16 15 15 13 10 11 12 9 10 10 8 9 7 5 2 2 2 4 10 15 11 8 17 26 16 15 12 10 10 6 7 3 5 6 6 18 25 28 29 30 32 34
17 18 17 17 15 16 14 12 10 13 11 10 8 9 8 6 5 3 4 4 8 11 14 11 8 14 20 5 4 15 11 9 4 6 16 11 14 20 12 29 25 27 28 30 36
17 15 16 16 14 16 14 13 12 11 12 11 11 10 8 6 3 7 7 7 10 11 8 13 4 8 8 4 9 22 21 17 21 22 17 13 14 29 30 19 26 30 28 32 34
15 14 15 17 14 15 15 15 14 12 12 12 10 9 8 7 7 7 9 10 14 15 15 14 10 11 12 18 20 26 25 21 21 18 29 32 42 33 24 31 33 30 29 33 28
16 14 15 17 17 14 15 13 14 13 14 11 11 12 10 9 10 12 13 15 14 15 15 15 19 18 20 18 18 21 24 22 26 28 31 34 32 32 31 23 21 22 32 29 19
18 13 16 13 16 17 16 14 12 12 11 11 12 12 13 13 14 14 14 12 13 13 11 12 11 11 18 1 12 21 10 16 13 13 22 25 24 20 18 18 16 25 18 20 20
14 14 13 14 16 17 16 13 14 15 12 14 13 14 16 18 17 16 16 17 19 22 21 18 14 8 8 9 20 2 12 12 12 14 19 16 15 14 18 16 13 16 21 23 21
Wind_Direction
150 131 131 133 102 70 78 96 70 37 14 304 282 279 273 276 274 287 273 265 241 249 266 258 227 231 238 208 205 226 240 254 258 253 251 259 303 338 286 206 271 288 9 297 254
167 138 170 161 133 149 145 143 128 117 310 322 303 291 280 288 288 270 279 282 287 298 303 298 285 261 234 221 216 214 236 250 266 264 264 255 296 290 291 185 150 51 107 175 245
157 155 184 202 180 166 198 220 177 212 239 253 269 280 290 293 271 279 278 278 286 290 299 293 300 295 285 267 223 233 245 255 238 246 253 259 275 268 260 232 219 264 161 202 247
166 176 200 194 234 206 213 236 239 225 244 258 267 277 278 244 228 154 157 265 290 290 294 292 291 286 276 271 264 262 249 249 247 229 237 242 253 249 247 234 216 246 240 230 232
182 192 210 223 238 282 282 269 273 285 280 261 256 257 238 214 143 196 257 286 293 299 296 296 294 290 285 285 277 267 266 256 254 253 250 248 245 254 240 240 226 222 242 234 213
192 199 214 214 230 233 265 273 269 243 229 218 211 163 154 152 94 320 356 343 334 323 318 315 312 304 302 296 284 280 275 270 262 259 259 262 254 253 256 259 253 241 230 242 234
202 210 220 225 214 229 215 215 192 180 187 206 209 178 121 74 64 0 358 333 318 315 313 311 311 307 307 296 286 286 289 284 282 271 267 255 253 254 270 266 259 254 251 241 249
211 215 222 216 192 176 162 163 153 154 165 174 167 164 78 88 57 7 351 344 332 325 316 312 309 318 314 292 286 294 296 330 318 307 277 266 284 267 258 263 250 252 251 249 244
203 195 191 186 166 155 157 155 154 152 155 157 134 91 97 50 33 354 332 337 332 329 333 324 323 351 6 349 324 321 324 311 312 286 302 303 300 298 267 279 267 261 257 245 239
186 180 175 168 161 161 151 144 149 145 137 137 134 136 109 43 359 45 3 1 349 339 342 7 15 58 16 5 345 330 324 314 312 315 282 307 293 297 292 291 288 263 251 243 251
180 174 171 166 165 157 153 147 156 153 154 142 129 127 85 2 8 34 16 360 3 8 20 24 47 35 357 335 318 304 319 313 312 310 308 299 290 288 296 296 300 295 283 261 244
180 173 169 164 167 159 158 155 165 151 153 144 128 105 43 26 21 23 12 7 8 18 18 62 39 357 310 300 317 315 312 313 311 307 309 309 298 280 297 305 304 300 301 283 255
185 174 168 165 173 166 160 156 163 164 146 141 137 74 35 38 25 15 15 7 15 19 28 62 20 335 350 342 333 315 329 327 315 320 308 303 295 288 286 304 299 289 306 292 271
186 176 171 168 171 169 167 163 169 164 136 149 113 49 44 58 25 3 358 5 18 18 23 18 8 344 334 333 332 323 315 314 308 318 310 311 298 300 310 308 297 300 300 287 260
186 181 174 168 168 172 171 170 167 167 78 153 121 75 37 80 14 353 350 1 20 16 7 12 15 353 356 5 354 342 314 301 307 308 316 329 265 314 317 289 283 293 321 336 289
188 183 174 175 178 174 172 172 168 169 158 158 172 142 16 24 11 1 353 6 31 10 35 73 37 15 2 318 325 321 332 301 302 308 62 53 8 329 2 12 16 304 316 351 320
191 182 179 179 178 177 177 172 163 180 161 170 185 271 187 127 352 350 360 359 13 6 6 39 1 328 325 320 318 324 359 349 353 348 226 313 330 348 356 0 20 15 4 356 349
193 186 182 184 177 178 179 172 184 153 160 168 184 142 121 335 350 10 352 344 355 3 8 358 29 350 350 2 335 348 354 30 307 283 292 316 243 51 29 2 15 354 354 353 352
194 191 188 185 182 180 180 187 157 165 184 193 148 113 178 230 314 336 4 345 347 348 9 356 313 344 358 349 357 334 330 313 267 286 274 254 139 7 37 4 359 344 342 346 349
196 196 195 186 182 184 187 189 190 184 179 183 187 182 169 226 286 332 32 339 337 348 349 348 316 323 333 345 343 344 329 333 321 336 308 294 314 183 346 338 339 338 332 335 341
197 196 192 185 186 188 193 198 203 196 192 199 208 205 214 237 252 300 35 284 332 341 339 329 301 313 336 348 346 9 28 10 315 317 326 328 270 186 315 338 336 329 322 326 330
201 201 196 187 185 195 201 202 196 194 205 218 219 221 225 241 261 185 195 256 316 324 317 319 302 310 338 334 341 342 347 347 342 307 303 271 270 274 304 321 326 322 325 327 328
200 205 198 194 197 198 197 205 203 201 210 217 219 223 234 243 228 177 203 236 266 274 290 311 288 319 346 7 277 323 330 331 321 308 270 256 269 296 313 317 318 318 320 321 326
195 199 196 197 204 200 202 201 203 210 223 225 229 235 246 252 235 222 228 241 253 264 280 288 277 280 255 287 302 305 315 316 308 282 285 276 290 306 317 317 312 308 310 316 316
198 201 198 200 197 197 203 206 210 214 224 230 235 238 236 234 240 253 262 275 280 274 274 267 270 278 286 294 298 305 308 317 300 298 276 293 295 307 311 310 310 308 311 307 323
206 201 200 200 204 210 200 212 217 214 226 233 235 231 234 244 259 277 294 294 292 291 302 275 259 284 300 354 328 313 342 344 316 300 330 293 281 294 311 309 316 308 317 331 331
213 215 207 205 207 208 211 219 214 218 233 242 248 247 247 258 274 283 284 288 285 285 286 271 258 272 271 309 318 290 338 331 341 330 342 3 357 10 15 11 334 336 334 335 326
Height
3134 3134 3136 3137 3136 3139 3138 3140 3140 3140 3141 3142 3143 3144 3144 3144 3143 3144 3144 3145 3145 3146 3146 3147 3149 3150 3151 3151 3152 3153 3156 3156 3159 3161 3162 3164 3163 3167 3168 3169 3170 3170 3171 3172 3170
3133 3132 3135 3136 3134 3138 3139 3139 3139 3139 3140 3140 3142 3143 3144 3143 3143 3144 3145 3144 3144 3144 3145 3145 3146 3149 3151 3152 3152 3152 3153 3155 3157 3159 3160 3160 3161 3162 3165 3167 3169 3170 3171 3172 3169
3132 3133 3134 3136 3136 3136 3138 3139 3138 3138 3139 3140 3142 3143 3144 3143 3144 3143 3144 3145 3145 3145 3146 3146 3148 3149 3149 3150 3149 3150 3152 3154 3155 3156 3154 3155 3156 3159 3161 3164 3166 3167 3171 3170 3169
3130 3132 3133 3132 3136 3136 3137 3137 3137 3137 3138 3138 3140 3142 3142 3143 3146 3143 3143 3143 3144 3144 3145 3146 3146 3147 3147 3149 3148 3149 3150 3149 3151 3151 3151 3152 3151 3155 3158 3161 3162 3162 3165 3167 3168
3129 3129 3130 3130 3130 3133 3134 3135 3136 3135 3135 3137 3140 3141 3143 3143 3143 3143 3143 3144 3144 3144 3145 3144 3145 3145 3146 3146 3146 3146 3147 3148 3148 3148 3149 3149 3149 3149 3153 3156 3159 3158 3160 3162 3165
3127 3127 3129 3128 3129 3130 3132 3133 3134 3134 3136 3137 3138 3140 3141 3142 3142 3142 3142 3143 3142 3142 3141 3142 3143 3142 3144 3145 3143 3142 3142 3143 3145 3147 3147 3147 3144 3145 3148 3152 3154 3156 3154 3157 3159
3125 3126 3126 3126 3126 3128 3129 3131 3132 3133 3134 3136 3138 3139 3140 3141 3141 3142 3142 3142 3141 3140 3140 3140 3140 3140 3139 3139 3136 3135 3134 3137 3139 3140 3139 3135 3133 3139 3143 3142 3143 3145 3147 3147 3152
3123 3123 3125 3126 3126 3127 3128 3130 3131 3132 3134 3137 3138 3139 3140 3140 3140 3140 3140 3140 3138 3138 3138 3138 3137 3137 3136 3134 3134 3132 3131 3130 3133 3133 3134 3132 3127 3130 3132 3132 3133 3136 3136 3136 3138
3121 3122 3123 3125 3126 3126 3128 3130 3131 3132 3134 3136 3138 3139 3140 3140 3141 3141 3140 3139 3137 3136 3135 3134 3134 3135 3134 3131 3132 3131 3129 3129 3128 3133 3132 3132 3124 3127 3127 3126 3126 3127 3128 3128 3129
3120 3121 3121 3123 3124 3125 3127 3128 3131 3133 3134 3136 3137 3142 3141 3140 3140 3140 3137 3136 3136 3135 3133 3131 3131 3133 3132 3132 3133 3131 3131 3130 3129 3130 3125 3125 3120 3122 3122 3122 3121 3120 3120 3120 3122
3118 3119 3120 3122 3124 3125 3126 3128 3132 3133 3133 3135 3137 3137 3138 3138 3137 3137 3136 3135 3133 3131 3129 3129 3131 3130 3132 3131 3130 3129 3129 3127 3127 3126 3124 3123 3114 3116 3118 3119 3117 3115 3114 3113 3112
3117 3119 3120 3122 3125 3124 3126 3127 3129 3132 3132 3133 3135 3137 3137 3135 3135 3136 3135 3133 3131 3128 3128 3129 3128 3130 3130 3129 3128 3127 3125 3123 3122 3121 3121 3118 3113 3110 3113 3115 3113 3109 3107 3104 3102
3117 3117 3118 3119 3122 3123 3124 3126 3127 3129 3131 3133 3134 3134 3134 3135 3134 3133 3133 3131 3130 3128 3126 3127 3130 3129 3128 3127 3125 3125 3124 3121 3118 3115 3117 3112 3107 3103 3108 3111 3108 3104 3099 3094 3093
3115 3116 3117 3118 3123 3123 3123 3125 3126 3128 3130 3134 3134 3134 3134 3132 3132 3132 3131 3131 3129 3128 3126 3128 3128 3126 3126 3126 3124 3122 3122 3119 3115 3112 3111 3111 3104 3100 3102 3103 3102 3098 3093 3092 3091
3112 3115 3116 3117 3119 3121 3124 3124 3125 3128 3132 3135 3133 3133 3132 3135 3134 3133 3131 3130 3128 3127 3128 3128 3126 3125 3125 3125 3123 3122 3118 3115 3112 3110 3108 3106 3105 3099 3096 3094 3094 3094 3092 3088 3086
3110 3113 3114 3117 3119 3120 3122 3123 3125 3129 3129 3131 3132 3132 3132 3131 3132 3132 3131 3129 3128 3128 3127 3126 3126 3126 3124 3123 3122 3120 3115 3111 3110 3107 3106 3106 3107 3100 3097 3095 3092 3090 3087 3084 3081
3109 3111 3113 3115 3118 3119 3121 3123 3126 3124 3129 3130 3131 3131 3132 3132 3132 3131 3129 3128 3128 3126 3125 3127 3125 3126 3122 3119 3119 3117 3113 3110 3110 3109 3107 3103 3103 3103 3098 3096 3090 3089 3086 3081 3078
3107 3108 3110 3114 3115 3117 3120 3123 3122 3124 3126 3128 3130 3131 3132 3132 3132 3130 3131 3129 3127 3128 3126 3125 3125 3125 3124 3122 3121 3117 3118 3118 3117 3112 3103 3101 3100 3101 3097 3091 3090 3090 3086 3083 3080
3105 3106 3109 3111 3114 3116 3119 3120 3120 3123 3125 3126 3128 3130 3132 3132 3131 3130 3129 3128 3128 3128 3129 3125 3124 3124 3123 3121 3119 3116 3117 3117 3114 3108 3104 3098 3098 3096 3096 3094 3092 3087 3083 3081 3076
3103 3105 3108 3111 3113 3115 3117 3116 3118 3119 3122 3125 3127 3128 3128 3129 3131 3128 3128 3129 3128 3127 3125 3126 3123 3121 3121 3119 3118 3115 3115 3115 3113 3113 3110 3097 3095 3092 3092 3090 3087 3082 3080 3076 3074
3101 3103 3106 3108 3111 3113 3113 3114 3115 3118 3121 3124 3122 3124 3125 3126 3125 3126 3126 3128 3127 3127 3125 3124 3124 3122 3118 3116 3114 3114 3114 3116 3115 3112 3109 3105 3095 3092 3090 3089 3084 3080 3076 3073 3068
3099 3102 3105 3106 3110 3109 3110 3112 3114 3115 3117 3120 3122 3122 3122 3123 3124 3124 3124 3124 3123 3123 3123 3121 3120 3118 3117 3115 3114 3114 3115 3115 3115 3113 3111 3107 3089 3092 3088 3087 3082 3077 3075 3071 3067
3097 3101 3103 3105 3106 3107 3108 3109 3111 3113 3114 3116 3118 3119 3120 3121 3123 3123 3123 3122 3121 3120 3120 3119 3117 3116 3115 3116 3114 3111 3110 3111 3111 3108 3105 3101 3086 3088 3086 3082 3078 3073 3072 3069 3065
3096 3098 3099 3101 3103 3104 3106 3106 3107 3109 3111 3112 3113 3115 3118 3118 3118 3119 3120 3120 3118 3118 3116 3116 3114 3115 3114 3113 3113 3108 3106 3106 3106 3103 3094 3088 3078 3079 3078 3075 3073 3070 3067 3064 3061
3092 3094 3095 3097 3100 3102 3104 3105 3104 3106 3108 3109 3110 3111 3111 3114 3114 3114 3116 3115 3115 3114 3113 3113 3110 3110 3108 3107 3107 3105 3101 3097 3097 3093 3091 3077 3076 3073 3071 3069 3067 3065 3062 3057 3055
3088 3091 3092 3094 3097 3098 3099 3102 3102 3104 3106 3107 3109 3108 3108 3110 3111 3110 3110 3111 3109 3109 3108 3107 3106 3105 3103 3103 3102 3099 3097 3094 3091 3088 3083 3072 3073 3072 3068 3066 3064 3062 3057 3053 3049
3087 3089 3091 3091 3093 3095 3097 3099 3100 3099 3101 3102 3105 3106 3106 3107 3108 3107 3106 3105 3105 3104 3103 3104 3103 3103 3098 3098 3095 3095 3093 3091 3088 3086 3082 3076 3073 3069 3067 3065 3063 3059 3054 3050 3047